Location: Vancouver
(49.2500°N, 123.1330°W)
Time: 21:44:38
(UTC-07:00)

S-56A Canister/Altair - Visible Passes

Search period start: 26 July 2017 00:00
Search period end: 05 August 2017 00:00
Orbit: 637 x 2497 km, 38.9° (Epoch: 26 July)

Date Brightness Start Highest point End Pass type
(mag) Time Alt. Az. Time Alt. Az. Time Alt. Az.
26 Jul 10.3 01:03:13 10° WSW 01:08:20 19° SW 01:08:20 19° SW visible
26 Jul 9.4 22:26:35 10° WSW 22:32:45 34° S 22:39:23 16° SE visible
27 Jul 10.2 00:30:43 10° WSW 00:36:37 20° SSW 00:36:45 20° SSW visible
27 Jul 9.3 21:54:27 10° WSW 22:00:14 33° S 22:07:54 11° SE visible
27 Jul 10.1 23:58:17 10° WSW 00:04:00 21° SSW 00:05:17 20° SSW visible
28 Jul 10.0 23:25:57 10° WSW 23:31:25 21° SSW 23:33:55 19° S visible
29 Jul 9.9 22:53:41 10° WSW 22:58:52 21° SSW 23:02:37 17° S visible
30 Jul 9.8 22:21:28 10° WSW 22:26:23 22° SSW 22:31:23 13° SSE visible
31 Jul 9.7 21:49:17 10° WSW 21:53:55 22° SSW 21:59:57 10° SSE visible
01 Aug 9.6 21:17:08 10° WSW 21:21:31 22° SSW 21:27:09 10° SSE visible
04 Aug 10.2 21:46:38 10° SW 21:47:37 10° SSW 21:48:37 10° SSW visible
